GW4136 Weather Reports


Display with metric or nautical units.
time (UTC)temp
F
wind
direction
speed
MPH
gust
MPH
rain 1hr
in
rain 24hr
in
rain mn
in
humidity
%
barometer
mb
20260506091105 49 9 1.0 6.0 0.00 0.00 0.00 71 1016.7
20260506090605 49 280 1.0 6.0 0.00 0.00 0.00 72 1016.7
20260506090106 49 291 1.0 3.0 0.00 0.00 0.00 73 1016.7
20260506085605 48 285 1.0 3.0 0.00 0.00 0.00 73 1016.7
20260506084605 48 287 1.0 6.0 0.00 0.00 0.00 74 1016.7
20260506084105 47 209 0.0 3.0 0.00 0.00 0.00 75 1016.7
20260506083606 47 263 1.0 3.0 0.00 0.00 0.00 76 1016.7
20260506082606 46 284 1.0 3.0 0.00 0.00 0.00 76 1016.7
20260506082106 46 254 0.0 5.0 0.00 0.00 0.00 76 1016.8
20260506081106 46 259 0.0 3.0 0.00 0.00 0.00 77 1016.8
20260506080605 45 246 1.0 3.0 0.00 0.00 0.00 77 1016.8
20260506080106 45 276 0.0 3.0 0.00 0.00 0.00 76 1016.8
20260506072605 45 265 0.0 1.0 0.00 0.00 0.00 78 1016.9
20260506072105 45 269 1.0 3.0 0.00 0.00 0.00 78 1016.9
20260506071605 44 307 0.0 2.0 0.00 0.00 0.00 78 1016.8
20260506071105 44 246 0.0 3.0 0.00 0.00 0.00 78 1016.8
20260506070606 44 270 0.0 5.0 0.00 0.00 0.00 78 1016.8
20260506070106 44 251 1.0 6.0 0.00 0.00 0.00 78 1016.8
20260506062105 44 252 1.0 6.0 0.00 0.00 0.00 79 1016.7
20260506061605 44 272 1.0 5.0 0.00 0.00 0.00 79 1016.6
20260506061106 44 263 1.0 3.0 0.00 0.00 0.00 79 1016.6
20260506060605 44 257 1.0 3.0 0.00 0.00 0.00 80 1016.6
20260506060106 44 189 1.0 2.0 0.00 0.00 0.00 80 1016.7
20260506051105 44 270 0.0 3.0 0.00 0.00 0.00 82 1016.3
20260506050605 44 248 0.0 3.0 0.00 0.00 0.00 82 1016.3
20260506050106 44 261 0.0 3.0 0.00 0.00 0.00 82 1016.3
20260506045106 44 254 0.0 2.0 0.00 0.00 0.00 82 1016.2
20260506044605 44 286 0.0 2.0 0.00 0.00 0.00 82 1016.3
20260506044105 44 281 1.0 6.0 0.00 0.00 0.00 82 1016.2
20260506043605 44 235 1.0 5.0 0.00 0.00 0.00 82 1016.3
20260506043106 44 262 0.0 2.0 0.00 0.00 0.00 82 1016.2
20260506042606 44 306 0.0 3.0 0.00 0.00 0.00 82 1016.2
20260506042106 44 266 0.0 2.0 0.00 0.00 0.00 81 1016.2
20260506041606 44 282 1.0 3.0 0.00 0.00 0.00 81 1016.2
20260506041105 44 276 1.0 3.0 0.00 0.00 0.00 81 1016.2
20260506040106 44 241 0.0 2.0 0.00 0.00 0.00 81 1016.3
20260506035106 45 250 0.0 1.0 0.00 0.00 0.00 80 1016.2
20260506034605 45 253 1.0 3.0 0.00 0.00 0.00 80 1016.3
20260506034106 45 262 0.0 2.0 0.00 0.00 0.00 80 1016.3
20260506033106 45 286 1.0 3.0 0.00 0.00 0.00 79 1016.3
20260506032606 45 281 0.0 3.0 0.00 0.00 0.00 79 1016.4
20260506032106 45 258 0.0 2.0 0.00 0.00 0.00 80 1016.4
20260506031606 45 283 0.0 2.0 0.00 0.00 0.00 79 1016.4
20260506030106 45 225 0.0 2.0 0.00 0.00 0.00 79 1016.5
20260506025606 45 241 0.0 3.0 0.00 0.00 0.00 79 1016.5
20260506024606 45 274 0.0 2.0 0.00 0.00 0.00 78 1016.5
20260506024106 45 262 0.0 3.0 0.00 0.00 0.00 79 1016.4
20260506023605 45 243 0.0 3.0 0.00 0.00 0.00 79 1016.5
20260506023106 45 254 0.0 1.0 0.00 0.00 0.00 79 1016.4
20260506022606 45 227 0.0 5.0 0.00 0.00 0.00 78 1016.4
20260506022106 45 265 1.0 3.0 0.00 0.00 0.00 78 1016.5
20260506021606 45 281 1.0 3.0 0.00 0.00 0.00 79 1016.5
20260506021105 45 281 1.0 5.0 0.00 0.00 0.00 78 1016.5
20260506020606 46 270 0.0 1.0 0.00 0.00 0.00 79 1016.5
20260506020105 46 248 0.0 1.0 0.00 0.00 0.00 79 1016.4
20260506015605 46 288 0.0 1.0 0.00 0.00 0.00 79 1016.5
20260506014605 46 284 1.0 3.0 0.00 0.00 0.00 79 1016.5
20260506014105 46 262 0.0 2.0 0.00 0.00 0.00 78 1016.5
20260506013606 46 252 0.0 2.0 0.00 0.00 0.00 78 1016.6
20260506013105 46 271 1.0 3.0 0.00 0.00 0.00 78 1016.6
20260506012606 46 256 0.0 2.0 0.00 0.00 0.00 78 1016.6
20260506012106 46 282 0.0 2.0 0.00 0.00 0.00 78 1016.7
20260506011106 46 222 1.0 6.0 0.00 0.00 0.00 78 1016.7
20260506010606 46 298 1.0 6.0 0.00 0.00 0.00 79 1016.7
20260506010106 46 224 0.0 3.0 0.00 0.00 0.00 80 1016.8
20260506005606 46 248 0.0 1.0 0.00 0.00 0.00 80 1016.8
20260506005106 47 286 0.0 3.0 0.00 0.00 0.00 80 1016.7
20260506004606 47 295 0.0 3.0 0.00 0.00 0.00 80 1016.7
20260506004106 47 257 0.0 5.0 0.00 0.00 0.00 80 1016.6
20260506003606 47 195 0.0 5.0 0.00 0.00 0.00 80 1016.7
20260506002606 47 287 1.0 7.0 0.00 0.00 0.00 80 1016.7
20260506002106 47 262 1.0 3.0 0.00 0.00 0.00 80 1016.7
20260506001606 47 314 0.0 3.0 0.00 0.00 0.00 80 1016.7
20260506001106 47 257 0.0 2.0 0.00 0.00 0.00 79 1016.7
20260506000606 47 290 0.0 2.0 0.00 0.00 0.00 79 1016.6
20260505235606 48 260 1.0 5.0 0.00 0.00 0.00 79 1016.5
20260505235106 48 168 1.0 3.0 0.00 0.00 0.00 79 1016.6
20260505234606 48 272 1.0 3.0 0.00 0.00 0.00 79 1016.6
20260505234106 48 287 1.0 5.0 0.00 0.00 0.00 80 1016.5
20260505233606 48 259 1.0 5.0 0.00 0.00 0.00 79 1016.6
20260505232606 48 312 1.0 3.0 0.00 0.00 0.00 79 1016.5
20260505231106 48 275 1.0 8.0 0.00 0.00 0.00 79 1016.7
20260505230107 49 240 0.0 3.0 0.00 0.00 0.00 78 1016.6
20260505225606 49 260 1.0 3.0 0.00 0.00 0.00 78 1016.5
20260505224105 49 241 0.0 2.0 0.00 0.00 0.00 77 1016.5
20260505223105 49 287 3.0 9.0 0.00 0.00 0.00 77 1016.4
20260505222605 49 262 2.0 6.0 0.00 0.00 0.00 77 1016.4
20260505222104 49 226 0.0 5.0 0.00 0.00 0.00 78 1016.4
20260505221604 49 23 1.0 5.0 0.00 0.00 0.00 79 1016.4
20260505221105 50 292 1.0 6.0 0.00 0.00 0.00 79 1016.4
20260505220605 50 280 1.0 6.0 0.00 0.00 0.00 80 1016.4
20260505220105 50 249 1.0 6.0 0.00 0.00 0.00 81 1016.3
20260505215605 50 273 1.0 3.0 0.00 0.00 0.00 81 1016.3
20260505215105 50 318 1.0 7.0 0.00 0.00 0.00 81 1016.2
20260505214105 50 280 0.0 3.0 0.00 0.00 0.00 81 1016.2
20260505213605 51 272 2.0 6.0 0.00 0.00 0.00 81 1016.2
20260505213105 51 278 1.0 5.0 0.00 0.00 0.00 81 1016.2
20260505212605 51 258 0.0 3.0 0.00 0.00 0.00 81 1016.2
20260505212105 51 282 1.0 5.0 0.00 0.00 0.00 81 1016.2
20260505211605 51 300 0.0 2.0 0.00 0.00 0.00 80 1016.2
20260505211104 51 265 0.0 1.0 0.00 0.00 0.00 80 1016.3
20260505210604 51 298 1.0 5.0 0.00 0.00 0.00 79 1016.3
20260505210105 51 282 2.0 5.0 0.00 0.00 0.00 79 1016.2
20260505205604 51 281 2.0 10.0 0.00 0.00 0.00 79 1016.1
20260505205104 51 247 1.0 7.0 0.00 0.00 0.00 79 1016.1
20260505204605 51 274 1.0 3.0 0.00 0.00 0.00 79 1016.1
20260505203604 51 248 0.0 1.0 0.00 0.00 0.00 78 1016.0
20260505203105 51 204 0.0 3.0 0.00 0.00 0.00 78 1016.0
20260505202605 51 252 0.0 1.0 0.00 0.00 0.00 78 1016.0
20260505202104 51 206 0.0 2.0 0.00 0.00 0.00 77 1016.0
20260505201604 51 271 0.0 1.0 0.00 0.00 0.00 77 1016.1
20260505200603 52 170 0.0 1.0 0.00 0.00 0.00 77 1016.0
20260505200105 52 257 0.0 3.0 0.00 0.00 0.00 77 1016.0
20260505195604 52 185 1.0 3.0 0.00 0.00 0.00 77 1016.0
20260505194604 52 263 0.0 3.0 0.00 0.00 0.00 77 1015.9
20260505194104 52 263 1.0 5.0 0.00 0.00 0.00 77 1015.8
20260505193604 52 260 1.0 5.0 0.00 0.00 0.00 77 1015.8
20260505193104 52 206 0.0 3.0 0.00 0.00 0.00 77 1015.8
20260505192604 52 234 0.0 2.0 0.00 0.00 0.00 77 1015.7
20260505192104 52 214 0.0 1.0 0.00 0.00 0.00 77 1015.6
20260505191604 52 251 0.0 3.0 0.00 0.00 0.00 77 1015.6
20260505191104 52 210 1.0 3.0 0.00 0.00 0.00 76 1015.6
20260505190604 53 197 0.0 2.0 0.00 0.00 0.00 76 1015.6
20260505190105 53 218 0.0 3.0 0.00 0.00 0.00 76 1015.5
20260505185604 53 244 0.0 2.0 0.00 0.00 0.00 75 1015.6
20260505185104 53 188 0.0 1.0 0.00 0.00 0.00 75 1015.5
20260505184103 53 217 0.0 3.0 0.00 0.00 0.00 74 1015.5
20260505183104 53 206 0.0 2.0 0.00 0.00 0.00 74 1015.6
20260505182605 53 249 1.0 3.0 0.00 0.00 0.00 73 1015.5
20260505182104 53 168 1.0 6.0 0.00 0.00 0.00 73 1015.5
20260505181604 54 214 1.0 3.0 0.00 0.00 0.00 72 1015.4
20260505181104 54 276 0.0 5.0 0.00 0.00 0.00 72 1015.4
20260505180604 54 270 1.0 3.0 0.00 0.00 0.00 72 1015.4
20260505180105 54 210 0.0 3.0 0.00 0.00 0.00 72 1015.4
20260505175604 55 228 1.0 3.0 0.00 0.00 0.00 72 1015.5
20260505175103 55 197 2.0 6.0 0.00 0.00 0.00 72 1015.3
20260505174605 55 196 1.0 7.0 0.00 0.00 0.00 72 1015.3
20260505174105 55 178 0.0 3.0 0.00 0.00 0.00 70 1015.4
20260505173605 55 205 2.0 8.0 0.00 0.00 0.00 69 1015.4
20260505173105 55 237 1.0 3.0 0.00 0.00 0.00 69 1015.3
20260505172605 55 168 0.0 3.0 0.00 0.00 0.00 69 1015.4
20260505172104 55 232 1.0 6.0 0.00 0.00 0.00 69 1015.3
20260505171605 55 224 1.0 3.0 0.00 0.00 0.00 71 1015.3
20260505165602 55 172 1.0 5.0 0.00 0.00 0.00 70 1015.4
20260505165104 55 168 1.0 3.0 0.00 0.00 0.00 70 1015.3
20260505164104 55 239 1.0 5.0 0.00 0.00 0.00 69 1015.3
20260505163604 55 281 1.0 3.0 0.00 0.00 0.00 68 1015.3
20260505162605 56 201 1.0 6.0 0.00 0.00 0.00 69 1015.2
20260505162104 57 193 0.0 2.0 0.00 0.00 0.00 69 1015.2
20260505161104 57 214 1.0 3.0 0.00 0.00 0.00 65 1015.2
20260505160605 57 234 0.0 5.0 0.00 0.00 0.00 65 1015.2
20260505160105 57 169 1.0 6.0 0.00 0.00 0.00 66 1015.3
20260505153103 56 218 1.0 3.0 0.00 0.00 0.00 67 1015.4
20260505152604 56 283 1.0 5.0 0.00 0.00 0.00 66 1015.4
20260505152105 56 264 2.0 6.0 0.00 0.00 0.00 66 1015.4
20260505151602 56 183 1.0 3.0 0.00 0.00 0.00 68 1015.5
20260505151105 56 210 0.0 3.0 0.00 0.00 0.00 68 1015.5
20260505150604 56 194 0.0 3.0 0.00 0.00 0.00 67 1015.5
20260505150105 56 247 1.0 5.0 0.00 0.00 0.00 66 1015.5
20260505140105 61 264 2.0 3.0 0.00 0.00 0.00 55 1015.6
20260505130105 57 183 1.0 9.0 0.00 0.00 0.00 66 1015.8
20260505124605 59 195 2.0 6.0 0.00 0.00 0.00 61 1015.6
20260505124105 59 177 1.0 5.0 0.00 0.00 0.00 61 1015.6
20260505123605 59 169 1.0 5.0 0.00 0.00 0.00 61 1015.5
20260505123105 58 201 1.0 6.0 0.00 0.00 0.00 60 1015.6
20260505122605 59 213 1.0 5.0 0.00 0.00 0.00 59 1015.6
20260505122105 58 189 1.0 7.0 0.00 0.00 0.00 61 1015.7
20260505121604 58 259 1.0 3.0 0.00 0.00 0.00 62 1015.8
20260505121105 57 219 1.0 6.0 0.00 0.00 0.00 62 1015.9
20260505120605 57 228 1.0 5.0 0.00 0.00 0.00 64 1016.0
20260505120106 56 171 1.0 5.0 0.00 0.00 0.00 65 1015.9
20260505115605 56 250 3.0 6.0 0.00 0.00 0.00 64 1015.9
20260505115105 56 225 1.0 6.0 0.00 0.00 0.00 66 1015.9
20260505114605 55 194 1.0 7.0 0.00 0.00 0.00 65 1016.0
20260505114105 56 235 1.0 8.0 0.00 0.00 0.00 65 1016.0
20260505113108 56 201 1.0 3.0 0.00 0.00 0.00 65 1015.8
20260505112606 57 206 2.0 12.0 0.00 0.00 0.00 63 1015.9
20260505112106 58 181 1.0 7.0 0.00 0.00 0.00 63 1016.0
20260505111105 58 201 2.0 5.0 0.00 0.00 0.00 58 1015.9
20260505110605 58 233 0.0 3.0 0.00 0.00 0.00 60 1015.9
20260505110105 58 235 1.0 5.0 0.00 0.00 0.00 58 1016.0
20260505102105 56 186 0.0 5.0 0.00 0.00 0.00 64 1016.3
20260505101605 56 179 1.0 3.0 0.00 0.00 0.00 64 1016.3
20260505100605 54 198 1.0 3.0 0.00 0.00 0.00 66 1016.3
20260505100105 54 215 0.0 3.0 0.00 0.00 0.00 65 1016.4
20260505095605 55 211 1.0 7.0 0.00 0.00 0.00 65 1016.5
20260505095105 56 265 2.0 6.0 0.00 0.00 0.00 64 1016.5
20260505094105 57 248 1.0 3.0 0.00 0.00 0.00 65 1016.4
20260505093104 57 265 1.0 7.0 0.00 0.00 0.00 65 1016.4
20260505092605 56 237 1.0 3.0 0.00 0.00 0.00 67 1016.3
20260505092105 56 245 2.0 7.0 0.00 0.00 0.00 66 1016.3
20260505091605 56 245 1.0 5.0 0.00 0.00 0.00 68 1016.3